{"data":{"norad_id":64370,"epoch":"2026-05-24T22:31:15.553344Z","epoch_age_seconds":80246,"freshness":"FRESH","line1":"1 64370U 25127A   26144.93837446  .00160112  00000+0  12205-2 0  9990","line2":"2 64370  42.9999 344.9989 0003903 257.7230 102.3201 15.70967832 55491","mean_motion":15.70967832,"eccentricity":0.0003903,"inclination_deg":42.9999,"raan_deg":344.9989,"arg_perigee_deg":257.723,"mean_anomaly_deg":102.3201,"bstar":0.0012205,"rev_number":5549,"period_min":91.663239098075,"perigee_km":353.5013342638,"apogee_km":358.75810286431,"semimajor_km":6734.2667185641,"source":"CELESTRAK","updated_at":"2026-05-25T13:38:20.408518Z"}}